Погода Троицко-Печерск

Хотите узнать прогноз погоды Троицко-Печерск? Тогда Вам сюда: Погода Троицко-Печерск

Поиск расширенной информации на нашем сайте:

Полезная информация:

Новости сайта



02.01.2020
Опубликован Долгосрочный прогноз погоды по городам России и ближнего зарубежья на январь 2020 года.
Карты: Прогноз на январь и февраль 2020 года, Сравнение прогнозируемой аномалии приземной температуры воздуха на январь 2020 года по разным моделям.




Погода Троицко-Печерск - сегодня

Время (UTC), дата Ветер
(°,м/с) 
Видим.   Явления Облачность Т
(°С)
Тd
(°С)
f(%) Тe
(°С)
Pmin
(гПа)
dP
(гПа)
Po
(мм)
O2
(г/м3)
Тmin Tmax R s Состояние
почвы
18 24.01.20 250 (З) 10 км  слаб. ливневой снег  10/5 300 м кучево-дожд., средняя 
[Cb cap|Ac trans]
-15 -17 85 -15  991.6  0.2  730  313           
21 24.01.20 250 (З) 10 км  слаб. ливневой снег  10/5 300 м кучево-дожд., средняя 
[Cb cap|Ac trans]
-15.2 -17.2 85 -15  991.7  730  313           
00 25.01.20 тихо ()   20000 м  {ливн. осадки}  10/5 300 м кучево-дожд., средняя 
[Cb cap|Ac trans]
-18.8 -20.7 85 -19  991.6  -0.3  730  317           
03 25.01.20 тихо ()   20000 м    8/0 средняя 
[Ac As]
-22.2 -24.7 80 -22  991.6  -0.3  730  322  -22.2    0.2  62  равномерный
сухой снег
100% 
06 25.01.20 тихо ()   20000 м    3/0 средняя 
[Ac trans]
-24.7 -27.1 80 -25  991.4  -0.3  730  325           
09 25.01.20 тихо ()   20000 м    8/0 средняя, верхняя 
[Ac trans|Ci fib]
-21.2 -23 85 -21  991.3  730  320           
12 25.01.20 нст () 20000 м    10/6 420 м кучево-дожд., средняя 
[Cb cap|Ac As]
-19.5 -22 81 -20  990.4  -0.3  729  318           
15 25.01.20 020 (С) 10 км  слаб. ливневой снег  10/10 480 м кучево-дожд. 
[Cb cap]
-18.6 -21.1 81 -19  990.1  -0.2  729  317    -18.6  0.0     
18 25.01.20 тихо ()   10 км  слаб. ливневой снег  10/8 450 м кучево-дожд., средняя 
[Cb cap|Ac As]
-17.4 -19.3 85 -17  990.1  729  315           
21 25.01.20 350 (С) 10 км  слаб. ливневой снег  10/8 500 м кучево-дожд., средняя 
[Cb cap|Ac As]
-16.9 -19.3 82 -17  990.5  0.4  730  315           
00 26.01.20 340 (С) 10 км  слаб. ливневой снег  10/10 450 м кучево-дожд. 
[Cb cap]
-16.6 -18.5 85 -17    0.6  730  315           
03 26.01.20 350 (С) 10 км  слаб. ливневой снег  10/10 480 м кучево-дожд. 
[Cb cap]
-16 -18.7 80 -16  992.4  1.3  731  314  -18.6    0.5  64  равномерный
сухой снег
100% 
06 26.01.20 350 (С) 10 км  слаб. снег{ливн. осадки}  10/8 500 м средняя 
[Sc diur, vesp|Ac trans]
-17.1 -19.5 82 -20  993.8  1.3  732  316           
09 26.01.20 020 (С) 10 км  слаб. снег  9/6 540 м средняя 
[Sc|Ac As]
-18.1 -20 85 -18  995.1  1.2  733  318           
12 26.01.20 350 (С) 10 км  слаб. снег  10/8 540 м средняя 
[Sc|Ac As]
-18.1 -20.7 80 -21  996.6  1.5  734  318           
15 26.01.20 350 (С) 10 км  слаб. снег  10/8 570 м средняя 
[Sc|Ac As]
-19.6 -22.3 79 -22  997.5  0.7  735  320    -16.1  0.3     
18 26.01.20 350 (С) 20000 м  {снег}  10/8 300 м средняя 
[Sc|As op]
-20.6 -23.3 79 -21  998.1  0.5  735  322           
21 26.01.20 340 (С) 20000 м    10/10 300 м 
[Frnb]
-22.8 -25.8 76 -23  998.6  0.4  735  325           
00 27.01.20 340 (С) 10 км  слаб. снег  10/8 500 м верхняя 
[Sc|Cs]
-23.7 -26.1 80 -24  999  0.3  735  326           
03 27.01.20 340 (С) 10 км  слаб. снег  9/0 верхняя 
[Sc|Cs]
-24.1 -27.3 75 -25  999.5  0.5  736  327  -25      64  равномерный
сухой снег
100% 
06 27.01.20 350 (С) 10 км  слаб. снег  10/10 500 м 
[Sc]
-24.5 -27.8 74 -25  900.9  1.3  737  328  -24.5         
09 27.01.20 030 (СВ) 10 км  слаб. снег  9/8 540 м средняя 
[Sc|Ac As]
-23.9 -27.3 73 -27  1002.3  1.4  738  328           
12 27.01.20 340 (С) 10 км  слаб. снег  10/8 480 м средняя 
[Sc|Ac und]
-24.1 -27.2 75 -25  1004.8  2.4  740  329           
15 27.01.20 330 (СЗ) 10 км  слаб. снег  9/6 500 м средняя 
[Sc|Ac As]
-25 -28.1 75 -28  1007.1  2.1  741  331    -19.4  0.9     
18 27.01.20 330 (СЗ) 20000 м  {снег}  6/0 средняя 
[Ac trans]
-26.1 -29.5 73 -29  1009.4  2.2  743  333           
Время (UTC), дата Ветер
(°,м/с) 
Видим.   Явления Облачность Т
(°С)
Тd
(°С)
f(%) Тe
(°С)
Pmin
(гПа)
dP
(гПа)
Po
(мм)
O2
(г/м3)
Тmin Tmax R s Состояние
почвы

Для получения пояснительной информации подведите курсор к названию столбца.

ПОГОДА Троицко-Печерск - архив

Всё, что Вы хотите узнать о погоде Троицко-Печерск - удобно и подробно!

Выберите нужную дату (начиная с 1 января 2019* года) и нажмите кнопку "Найти".
Будут отображены архивные сводки погоды по пункту Троицко-Печерск, начиная с указанной даты.


Отображать данные в формате CSV (для использования в таблицах Excel)


Внимание! Наш архив погоды предназначен исключительно для личного некоммерческого использования в познавательных целях. Если Вам необходимы официальные справки о состоянии погоды (для производственных, юридических, коммерческих и т.п. целей), обращайтесь в органы Росгидромета.

*Примечание: данная дата относится к архиву по метеостанциям СССР (Россия, СНГ, Балтия).
Архив по метеостанциям Зарубежной Европы и Азии (кроме Китая) хранится 10 дней, по другим регионам земного шара (Китай, Африка, Америка, Австралия, Океания) - 1 день.

Троицко-Печерск - район местоположения метеостанции


Название, широта, долгота, высота метеостанции:
Троицко-Печерск 62.7°ш. 56.2°д. 139 м над ур. моря [Российская Федерация]

Дополнительная информация

В oтличие oт бoльшинства пoгoдных сайтoв мы публикуем пoдрoбную метеoинфoрмацию в детальнoм прoфессиoнальнoм фoрмате.

Характеристики температуры и влажнoсти вoздуха измеряются на высoте 2 м в тени вдали oт зданий и деревьев.
Скoрoсть ветра измеряется на высoте 10 м (на урoвне рoста челoвека скoрoсть ветра ниже в 1.5-2 раза). Если метеoстанция нахoдится в гoрoде или в лесу, тo скoрoсть ветра занижена на 2-4 м/с пo сравнению с oткрытым местoм. Скoрoсть ветра над акватoриями крупных рек и oзёр, а также на вершинах хoлмoв на 2-5 м/с выше, чем в oбычных услoвиях.
Атмoсфернoе давление в разных тoчках местнoсти мoжет значительнo oтличаться oт давления на метеoстанции, в зависимoсти oт услoвий рельефа (при пoдъёме на 10 м давление пoнижается примернo на 1 мм рт.ст.).